RUK27GK EGSS-LEXJ

Flight info

Callsign RUK27GK
Flight time 1h 36m
Altitude 32000
Route NUGBO M183 SILVA Q41 SAM N63 LELNA DCT NOVAN DCT NENEM Q42 XORNA
Aircraft B738/M-SDE2E3FGHIRWXY/LB1

Departure

Time 2026-04-20 16:14
Airport London Stansted Airport (EGSS)

Arrival

Time 2026-04-20 17:50
Airport Seve Ballesteros-Santander Airport (LEXJ)
Time Latitude Longitude Altitude Speed Heading
2026-04-20 15:48 51.89341 0.25782 353 ft 0 kts 43°
2026-04-20 16:03 51.89330 0.25766 358 ft 4 kts 43°
2026-04-20 16:04 51.89311 0.25739 355 ft 4 kts 18°
2026-04-20 16:04 51.89293 0.25744 356 ft 2 kts 313°
2026-04-20 16:04 51.89279 0.25768 358 ft 2 kts 313°
2026-04-20 16:04 51.89279 0.25769 358 ft 0 kts 313°
2026-04-20 16:08 51.89282 0.25763 348 ft 3 kts 313°
2026-04-20 16:08 51.89304 0.25725 349 ft 10 kts 313°
2026-04-20 16:08 51.89361 0.25621 350 ft 13 kts 302°
2026-04-20 16:08 51.89326 0.25502 348 ft 13 kts 224°
2026-04-20 16:09 51.89250 0.25389 349 ft 17 kts 223°
2026-04-20 16:09 51.89155 0.25246 350 ft 22 kts 223°
2026-04-20 16:09 51.89039 0.25071 352 ft 23 kts 222°
2026-04-20 16:09 51.88924 0.24901 348 ft 22 kts 222°
2026-04-20 16:10 51.88815 0.24736 354 ft 21 kts 224°
2026-04-20 16:10 51.88706 0.24572 350 ft 21 kts 223°
2026-04-20 16:10 51.88601 0.24416 350 ft 21 kts 223°
2026-04-20 16:10 51.88487 0.24243 348 ft 24 kts 223°
2026-04-20 16:11 51.88357 0.24047 348 ft 26 kts 223°
2026-04-20 16:11 51.88220 0.23842 351 ft 27 kts 223°
2026-04-20 16:11 51.88086 0.23644 352 ft 25 kts 222°
2026-04-20 16:11 51.87961 0.23455 351 ft 25 kts 223°
2026-04-20 16:12 51.87822 0.23245 348 ft 30 kts 222°
2026-04-20 16:12 51.87733 0.23046 348 ft 18 kts 284°
2026-04-20 16:12 51.87813 0.22892 350 ft 18 kts 313°
2026-04-20 16:12 51.87899 0.22741 346 ft 20 kts 312°
2026-04-20 16:13 51.87978 0.22696 337 ft 11 kts 41°
2026-04-20 16:13 51.88051 0.22805 338 ft 19 kts 43°
2026-04-20 16:13 51.88347 0.23250 337 ft 101 kts 43°
2026-04-20 16:13 51.89044 0.24289 491 ft 159 kts 43°
2026-04-20 16:14 51.89856 0.25514 1606 ft 157 kts 42°
2026-04-20 16:14 51.90674 0.26764 2519 ft 175 kts 42°
2026-04-20 16:14 51.91639 0.28232 2892 ft 204 kts 42°
2026-04-20 16:14 51.92870 0.29570 3300 ft 224 kts 21°
2026-04-20 16:15 51.94492 0.29869 3673 ft 248 kts 352°
2026-04-20 16:15 51.96061 0.28670 4632 ft 255 kts 320°
2026-04-20 16:15 51.96988 0.26218 5661 ft 263 kts 288°
2026-04-20 16:15 51.97331 0.23277 6607 ft 268 kts 281°
2026-04-20 16:16 51.97541 0.20262 7510 ft 272 kts 272°
2026-04-20 16:16 51.97369 0.17188 8460 ft 276 kts 263°
2026-04-20 16:16 51.97039 0.14112 9407 ft 278 kts 262°
2026-04-20 16:16 51.96678 0.11013 10325 ft 281 kts 262°
2026-04-20 16:17 51.96313 0.07834 10850 ft 298 kts 262°
2026-04-20 16:17 51.95931 0.04387 11094 ft 322 kts 262°
2026-04-20 16:17 51.95538 0.00753 11712 ft 331 kts 262°
2026-04-20 16:17 51.95147 -0.02921 12640 ft 331 kts 262°
2026-04-20 16:18 51.94760 -0.06614 13465 ft 335 kts 262°
2026-04-20 16:18 51.94369 -0.10373 14242 ft 339 kts 262°
2026-04-20 16:18 51.93978 -0.14157 15011 ft 342 kts 262°
2026-04-20 16:18 51.93587 -0.17952 15794 ft 343 kts 263°
2026-04-20 16:19 51.93138 -0.21743 16517 ft 349 kts 255°
2026-04-20 16:19 51.92016 -0.25284 17154 ft 361 kts 234°
2026-04-20 16:19 51.90150 -0.28073 17892 ft 370 kts 219°
2026-04-20 16:19 51.88044 -0.30508 18598 ft 374 kts 219°
2026-04-20 16:20 51.85896 -0.32931 19194 ft 378 kts 219°
2026-04-20 16:20 51.83730 -0.35365 19849 ft 380 kts 220°
2026-04-20 16:20 51.81556 -0.37818 20501 ft 382 kts 220°
2026-04-20 16:20 51.79406 -0.40258 21119 ft 384 kts 221°
2026-04-20 16:21 51.77215 -0.42751 21743 ft 387 kts 221°
2026-04-20 16:21 51.75012 -0.45264 22411 ft 389 kts 222°
2026-04-20 16:21 51.72797 -0.47795 23013 ft 391 kts 223°
2026-04-20 16:21 51.70568 -0.50343 23591 ft 394 kts 223°
2026-04-20 16:22 51.68328 -0.52903 24078 ft 396 kts 223°
2026-04-20 16:22 51.66073 -0.55479 24538 ft 399 kts 224°
2026-04-20 16:22 51.63804 -0.58066 25003 ft 401 kts 224°
2026-04-20 16:22 51.61521 -0.60668 25444 ft 403 kts 224°
2026-04-20 16:23 51.59220 -0.63287 25882 ft 406 kts 224°
2026-04-20 16:23 51.56908 -0.65914 26316 ft 408 kts 224°
2026-04-20 16:23 51.54584 -0.68552 26731 ft 411 kts 224°
2026-04-20 16:23 51.52244 -0.71204 27214 ft 411 kts 224°
2026-04-20 16:24 51.49913 -0.73837 27839 ft 408 kts 224°
2026-04-20 16:24 51.47595 -0.76451 28460 ft 405 kts 224°
2026-04-20 16:24 51.45298 -0.79040 29007 ft 405 kts 225°
2026-04-20 16:24 51.42994 -0.81639 29510 ft 405 kts 225°
2026-04-20 16:25 51.40693 -0.84231 30071 ft 403 kts 225°
2026-04-20 16:25 51.38404 -0.86806 30586 ft 401 kts 225°
2026-04-20 16:25 51.36119 -0.89374 30974 ft 402 kts 224°
2026-04-20 16:25 51.33822 -0.91955 31278 ft 404 kts 224°
2026-04-20 16:26 51.31522 -0.94535 31657 ft 404 kts 224°
2026-04-20 16:26 51.29222 -0.97109 32072 ft 403 kts 224°
2026-04-20 16:26 51.26915 -0.99691 32226 ft 408 kts 224°
2026-04-20 16:26 51.24582 -1.02300 32231 ft 410 kts 223°
2026-04-20 16:27 51.19925 -1.07483 32220 ft 404 kts 223°
2026-04-20 16:27 51.15329 -1.12588 32236 ft 404 kts 223°
2026-04-20 16:28 51.10699 -1.17729 32235 ft 406 kts 223°
2026-04-20 16:28 51.06047 -1.22877 32229 ft 408 kts 223°
2026-04-20 16:29 51.01378 -1.28030 32240 ft 409 kts 223°
2026-04-20 16:29 50.96695 -1.33184 32234 ft 409 kts 223°
2026-04-20 16:30 50.91713 -1.37730 32239 ft 417 kts 214°
2026-04-20 16:30 50.86502 -1.41767 32229 ft 416 kts 214°
2026-04-20 16:31 50.81321 -1.45833 32227 ft 415 kts 214°
2026-04-20 16:31 50.76174 -1.49931 32221 ft 414 kts 214°
2026-04-20 16:32 50.71037 -1.54012 32234 ft 414 kts 214°
2026-04-20 16:32 50.65924 -1.58053 32234 ft 414 kts 214°
2026-04-20 16:33 50.60736 -1.62143 32236 ft 414 kts 214°
2026-04-20 16:33 50.55609 -1.66177 32229 ft 415 kts 214°
2026-04-20 16:34 50.50436 -1.70238 32232 ft 416 kts 213°
2026-04-20 16:34 50.45257 -1.74294 32225 ft 416 kts 213°
2026-04-20 16:35 50.40071 -1.78345 32228 ft 417 kts 213°
2026-04-20 16:35 50.34879 -1.82390 32224 ft 417 kts 213°
2026-04-20 16:36 50.29682 -1.86430 32224 ft 417 kts 213°
2026-04-20 16:36 50.24491 -1.90456 32223 ft 417 kts 213°
2026-04-20 16:37 50.19299 -1.94472 32227 ft 416 kts 212°
2026-04-20 16:37 50.14111 -1.98476 32221 ft 416 kts 212°
2026-04-20 16:38 50.08922 -2.02472 32221 ft 416 kts 212°
2026-04-20 16:38 50.03734 -2.06458 32220 ft 416 kts 212°
2026-04-20 16:39 49.98540 -2.10414 32212 ft 417 kts 210°
2026-04-20 16:39 49.92998 -2.13303 32214 ft 422 kts 202°
2026-04-20 16:40 49.87361 -2.15854 32209 ft 422 kts 202°
2026-04-20 16:40 49.81733 -2.18412 32209 ft 421 kts 202°
2026-04-20 16:41 49.76115 -2.21000 32210 ft 421 kts 202°
2026-04-20 16:41 49.70506 -2.23598 32208 ft 421 kts 202°
2026-04-20 16:42 49.64899 -2.26194 32210 ft 420 kts 202°
2026-04-20 16:42 49.59404 -2.28732 32207 ft 420 kts 202°
2026-04-20 16:43 49.53804 -2.31311 32205 ft 420 kts 202°
2026-04-20 16:43 49.48209 -2.33882 32185 ft 420 kts 202°
2026-04-20 16:44 49.42655 -2.36428 32189 ft 419 kts 202°
2026-04-20 16:44 49.37064 -2.38985 32178 ft 419 kts 201°
2026-04-20 16:45 49.31479 -2.41533 32180 ft 418 kts 201°
2026-04-20 16:45 49.25898 -2.44073 32162 ft 418 kts 201°
2026-04-20 16:46 49.20326 -2.46603 32163 ft 418 kts 201°
2026-04-20 16:46 49.14758 -2.49126 32161 ft 417 kts 201°
2026-04-20 16:47 49.09190 -2.51642 32163 ft 417 kts 201°
2026-04-20 16:47 49.03627 -2.54150 32160 ft 417 kts 201°
2026-04-20 16:48 48.98071 -2.56650 32164 ft 416 kts 201°
2026-04-20 16:48 48.92515 -2.59143 32159 ft 416 kts 201°
2026-04-20 16:49 48.86964 -2.61629 32157 ft 415 kts 200°
2026-04-20 16:49 48.81421 -2.64105 32141 ft 415 kts 200°
2026-04-20 16:50 48.75883 -2.66573 32143 ft 415 kts 200°
2026-04-20 16:50 48.70350 -2.69033 32134 ft 414 kts 200°
2026-04-20 16:51 48.64818 -2.71488 32127 ft 414 kts 200°
2026-04-20 16:51 48.59295 -2.73932 32126 ft 414 kts 200°
2026-04-20 16:52 48.53806 -2.76356 32136 ft 414 kts 200°
2026-04-20 16:52 48.48280 -2.78791 32126 ft 414 kts 200°
2026-04-20 16:53 48.42751 -2.81222 32131 ft 414 kts 200°
2026-04-20 16:53 48.37230 -2.83643 32126 ft 414 kts 200°
2026-04-20 16:54 48.31702 -2.86063 32117 ft 413 kts 200°
2026-04-20 16:54 48.27114 -2.88066 32108 ft 413 kts 200°
2026-04-20 16:55 48.21593 -2.90473 32099 ft 413 kts 200°
2026-04-20 16:55 48.16081 -2.92870 32088 ft 412 kts 200°
2026-04-20 16:56 48.10582 -2.95255 32083 ft 411 kts 200°
2026-04-20 16:56 48.05085 -2.97635 32073 ft 410 kts 200°
2026-04-20 16:57 47.99606 -3.00001 32078 ft 410 kts 200°
2026-04-20 16:57 47.94127 -3.02363 32066 ft 410 kts 200°
2026-04-20 16:58 47.88654 -3.04717 32063 ft 409 kts 200°
2026-04-20 16:58 47.83186 -3.07063 32045 ft 409 kts 200°
2026-04-20 16:59 47.77754 -3.09389 32073 ft 409 kts 200°
2026-04-20 16:59 47.72250 -3.11741 32048 ft 409 kts 200°
2026-04-20 17:00 47.64082 -3.15221 32053 ft 409 kts 199°
2026-04-20 17:01 47.58577 -3.17559 32059 ft 409 kts 200°
2026-04-20 17:01 47.53152 -3.19860 32066 ft 408 kts 200°
2026-04-20 17:02 47.47689 -3.22172 32055 ft 408 kts 201°
2026-04-20 17:02 47.42230 -3.24476 32052 ft 408 kts 201°
2026-04-20 17:03 47.36771 -3.26776 32046 ft 408 kts 201°
2026-04-20 17:03 47.31317 -3.29068 32049 ft 407 kts 202°
2026-04-20 17:04 47.25868 -3.31354 32047 ft 407 kts 202°
2026-04-20 17:04 47.20423 -3.33633 32048 ft 406 kts 202°
2026-04-20 17:05 47.14984 -3.35904 32045 ft 406 kts 202°
2026-04-20 17:05 47.09558 -3.38166 32043 ft 405 kts 202°
2026-04-20 17:06 47.04135 -3.40421 32042 ft 405 kts 202°
2026-04-20 17:06 46.98720 -3.42669 32044 ft 404 kts 202°
2026-04-20 17:07 46.93310 -3.44909 32038 ft 404 kts 202°
2026-04-20 17:07 46.87944 -3.47127 32037 ft 403 kts 202°
2026-04-20 17:08 46.82547 -3.49353 32035 ft 403 kts 202°
2026-04-20 17:08 46.77156 -3.51572 32036 ft 402 kts 202°
2026-04-20 17:09 46.71768 -3.53785 32031 ft 402 kts 202°
2026-04-20 17:09 46.66385 -3.55991 32029 ft 401 kts 202°
2026-04-20 17:10 46.61015 -3.58188 32030 ft 401 kts 202°
2026-04-20 17:10 46.55646 -3.60379 32026 ft 400 kts 202°
2026-04-20 17:11 46.50284 -3.62564 32023 ft 400 kts 202°
2026-04-20 17:11 46.44925 -3.64743 32023 ft 400 kts 202°
2026-04-20 17:12 46.39570 -3.66916 32016 ft 399 kts 202°
2026-04-20 17:12 46.34195 -3.68995 32011 ft 403 kts 195°
2026-04-20 17:13 46.28516 -3.69126 32008 ft 417 kts 177°
2026-04-20 17:13 46.22784 -3.67689 32010 ft 419 kts 175°
2026-04-20 17:14 46.17053 -3.66161 32007 ft 419 kts 175°
2026-04-20 17:14 46.11317 -3.64677 32004 ft 418 kts 176°
2026-04-20 17:15 46.05622 -3.63242 31998 ft 418 kts 176°
2026-04-20 17:15 45.99886 -3.61812 32003 ft 418 kts 176°
2026-04-20 17:16 45.94146 -3.60386 31995 ft 418 kts 176°
2026-04-20 17:16 45.88416 -3.58966 32003 ft 418 kts 176°
2026-04-20 17:17 45.82685 -3.57548 32002 ft 418 kts 176°
2026-04-20 17:17 45.76953 -3.56132 31989 ft 418 kts 176°
2026-04-20 17:18 45.71225 -3.54720 31987 ft 418 kts 176°
2026-04-20 17:18 45.65499 -3.53312 31987 ft 417 kts 176°
2026-04-20 17:19 45.59774 -3.51907 31989 ft 417 kts 176°
2026-04-20 17:19 45.54047 -3.50504 31986 ft 417 kts 176°
2026-04-20 17:20 45.48321 -3.49104 31985 ft 418 kts 176°
2026-04-20 17:20 45.42594 -3.47707 31977 ft 418 kts 176°
2026-04-20 17:21 45.36866 -3.46313 31974 ft 417 kts 176°
2026-04-20 17:21 45.31139 -3.44921 31978 ft 417 kts 175°
2026-04-20 17:22 45.25414 -3.43533 31975 ft 417 kts 175°
2026-04-20 17:22 45.19696 -3.42150 31975 ft 417 kts 175°
2026-04-20 17:23 45.13979 -3.40769 31967 ft 417 kts 175°
2026-04-20 17:23 45.08267 -3.39393 31968 ft 416 kts 175°
2026-04-20 17:24 45.02567 -3.38021 31955 ft 411 kts 175°
2026-04-20 17:24 44.97015 -3.36682 31953 ft 401 kts 175°
2026-04-20 17:25 44.91501 -3.35365 31853 ft 404 kts 175°
2026-04-20 17:25 44.88731 -3.34705 31583 ft 400 kts 175°
2026-04-20 17:25 44.86000 -3.34051 31205 ft 397 kts 175°
2026-04-20 17:25 44.83291 -3.33403 30859 ft 393 kts 175°
2026-04-20 17:26 44.80605 -3.32761 30506 ft 390 kts 175°
2026-04-20 17:26 44.77933 -3.32124 30155 ft 388 kts 175°
2026-04-20 17:26 44.75282 -3.31494 29759 ft 385 kts 175°
2026-04-20 17:26 44.72648 -3.30867 29361 ft 382 kts 175°
2026-04-20 17:27 44.70042 -3.30248 28993 ft 378 kts 175°
2026-04-20 17:27 44.67460 -3.29635 28614 ft 375 kts 175°
2026-04-20 17:27 44.64935 -3.29036 28250 ft 372 kts 175°
2026-04-20 17:27 44.62361 -3.28426 27890 ft 369 kts 175°
2026-04-20 17:28 44.59874 -3.27837 27513 ft 366 kts 175°
2026-04-20 17:28 44.57374 -3.27246 27159 ft 363 kts 175°
2026-04-20 17:28 44.54892 -3.26660 26807 ft 361 kts 175°
2026-04-20 17:28 44.52426 -3.26078 26452 ft 358 kts 175°
2026-04-20 17:29 44.49974 -3.25500 26099 ft 356 kts 175°
2026-04-20 17:29 44.47536 -3.24925 25752 ft 354 kts 175°
2026-04-20 17:29 44.45116 -3.24356 25411 ft 352 kts 175°
2026-04-20 17:29 44.42702 -3.23788 25063 ft 350 kts 175°
2026-04-20 17:30 44.40304 -3.23224 24727 ft 349 kts 174°
2026-04-20 17:30 44.37916 -3.22664 24380 ft 348 kts 174°
2026-04-20 17:30 44.35533 -3.22104 24037 ft 346 kts 174°
2026-04-20 17:30 44.33160 -3.21548 23698 ft 345 kts 174°
2026-04-20 17:31 44.30788 -3.20993 23295 ft 345 kts 174°
2026-04-20 17:31 44.28430 -3.20440 22921 ft 343 kts 174°
2026-04-20 17:31 44.26078 -3.19890 22559 ft 341 kts 174°
2026-04-20 17:31 44.23742 -3.19343 22210 ft 339 kts 174°
2026-04-20 17:32 44.21420 -3.18801 21873 ft 337 kts 174°
2026-04-20 17:32 44.19117 -3.18263 21530 ft 335 kts 174°
2026-04-20 17:32 44.16824 -3.17728 21196 ft 333 kts 174°
2026-04-20 17:32 44.14547 -3.17197 20866 ft 331 kts 174°
2026-04-20 17:33 44.12283 -3.16670 20542 ft 329 kts 174°
2026-04-20 17:33 44.10029 -3.16145 20213 ft 327 kts 174°
2026-04-20 17:33 44.07787 -3.15627 19886 ft 326 kts 175°
2026-04-20 17:33 44.05569 -3.15728 19537 ft 316 kts 199°
2026-04-20 17:34 44.03591 -3.16937 19133 ft 310 kts 219°
2026-04-20 17:34 44.01955 -3.18843 18833 ft 306 kts 225°
2026-04-20 17:34 44.00350 -3.20791 18414 ft 308 kts 217°
2026-04-20 17:34 43.98406 -3.22085 17767 ft 315 kts 198°
2026-04-20 17:35 43.96437 -3.22670 17227 ft 316 kts 194°
2026-04-20 17:35 43.94257 -3.23232 16681 ft 314 kts 193°
2026-04-20 17:35 43.92146 -3.23767 16169 ft 311 kts 193°
2026-04-20 17:35 43.90001 -3.24320 15657 ft 308 kts 194°
2026-04-20 17:36 43.87927 -3.24864 15152 ft 306 kts 194°
2026-04-20 17:36 43.85840 -3.25420 14650 ft 305 kts 194°
2026-04-20 17:36 43.83768 -3.25976 14167 ft 302 kts 194°
2026-04-20 17:36 43.81712 -3.26532 13691 ft 300 kts 194°
2026-04-20 17:37 43.79668 -3.27086 13176 ft 298 kts 194°
2026-04-20 17:37 43.77646 -3.27634 12696 ft 294 kts 194°
2026-04-20 17:37 43.75651 -3.28176 12216 ft 291 kts 194°
2026-04-20 17:37 43.73673 -3.28713 11737 ft 288 kts 194°
2026-04-20 17:38 43.71711 -3.29246 11270 ft 286 kts 194°
2026-04-20 17:38 43.69769 -3.29773 10814 ft 283 kts 194°
2026-04-20 17:38 43.67846 -3.30295 10378 ft 280 kts 194°
2026-04-20 17:38 43.65949 -3.30809 9984 ft 275 kts 194°
2026-04-20 17:39 43.64091 -3.31312 9667 ft 270 kts 194°
2026-04-20 17:39 43.62254 -3.31810 9364 ft 268 kts 194°
2026-04-20 17:39 43.60424 -3.32306 9071 ft 267 kts 194°
2026-04-20 17:39 43.58607 -3.32798 8779 ft 266 kts 194°
2026-04-20 17:40 43.56797 -3.33288 8502 ft 264 kts 194°
2026-04-20 17:40 43.54997 -3.33775 8225 ft 263 kts 193°
2026-04-20 17:40 43.53208 -3.34258 7945 ft 262 kts 193°
2026-04-20 17:40 43.51426 -3.34739 7668 ft 260 kts 193°
2026-04-20 17:41 43.49649 -3.35218 7396 ft 259 kts 193°
2026-04-20 17:41 43.47883 -3.35672 7139 ft 258 kts 189°
2026-04-20 17:41 43.46093 -3.35769 6925 ft 256 kts 181°
2026-04-20 17:41 43.44317 -3.35749 6658 ft 255 kts 182°
2026-04-20 17:42 43.42544 -3.35829 6395 ft 254 kts 185°
2026-04-20 17:42 43.40791 -3.36029 6143 ft 252 kts 188°
2026-04-20 17:42 43.39054 -3.36318 5873 ft 251 kts 189°
2026-04-20 17:42 43.37909 -3.36551 5698 ft 251 kts 190°
2026-04-20 17:43 43.36216 -3.36987 5576 ft 244 kts 193°
2026-04-20 17:43 43.34075 -3.37764 5427 ft 238 kts 205°
2026-04-20 17:43 43.32804 -3.39140 5312 ft 233 kts 236°
2026-04-20 17:43 43.32231 -3.41161 5250 ft 224 kts 263°
2026-04-20 17:44 43.32365 -3.43224 5168 ft 212 kts 284°
2026-04-20 17:44 43.32662 -3.44502 5062 ft 206 kts 289°
2026-04-20 17:44 43.33188 -3.46305 4838 ft 201 kts 291°
2026-04-20 17:44 43.33689 -3.48074 4604 ft 197 kts 290°
2026-04-20 17:45 43.34161 -3.49829 4404 ft 195 kts 290°
2026-04-20 17:45 43.34624 -3.51575 4203 ft 195 kts 290°
2026-04-20 17:45 43.35082 -3.53306 3993 ft 195 kts 290°
2026-04-20 17:45 43.35551 -3.55084 3804 ft 196 kts 290°
2026-04-20 17:46 43.36009 -3.56814 3618 ft 196 kts 290°
2026-04-20 17:46 43.36478 -3.58583 3376 ft 197 kts 290°
2026-04-20 17:46 43.36944 -3.60344 3103 ft 195 kts 290°
2026-04-20 17:46 43.37407 -3.62090 2843 ft 193 kts 290°
2026-04-20 17:47 43.37859 -3.63794 2585 ft 186 kts 290°
2026-04-20 17:47 43.38290 -3.65419 2345 ft 177 kts 291°
2026-04-20 17:47 43.38699 -3.66959 2123 ft 166 kts 290°
2026-04-20 17:47 43.39085 -3.68409 1906 ft 156 kts 290°
2026-04-20 17:48 43.39457 -3.69810 1707 ft 158 kts 290°
2026-04-20 17:48 43.39831 -3.71217 1485 ft 155 kts 290°
2026-04-20 17:48 43.40198 -3.72593 1289 ft 152 kts 291°
2026-04-20 17:48 43.40560 -3.73951 1095 ft 151 kts 291°
2026-04-20 17:49 43.40921 -3.75311 903 ft 151 kts 291°
2026-04-20 17:49 43.41282 -3.76665 682 ft 150 kts 292°
2026-04-20 17:49 43.41636 -3.77998 484 ft 147 kts 291°
2026-04-20 17:49 43.41990 -3.79318 297 ft 146 kts 292°
2026-04-20 17:50 43.42338 -3.80638 72 ft 147 kts 292°
2026-04-20 17:50 43.42679 -3.81894 19 ft 119 kts 290°
2026-04-20 17:50 43.42878 -3.82640 22 ft 35 kts 290°
2026-04-20 17:50 43.42941 -3.82915 18 ft 19 kts 266°
2026-04-20 17:51 43.42886 -3.83033 19 ft 7 kts 199°
2026-04-20 17:51 43.42840 -3.83032 19 ft 7 kts 161°
2026-04-20 17:51 43.42805 -3.82990 20 ft 7 kts 127°
2026-04-20 17:51 43.42787 -3.82931 20 ft 7 kts 110°
2026-04-20 17:52 43.42771 -3.82873 21 ft 7 kts 110°
2026-04-20 17:52 43.42747 -3.82786 19 ft 14 kts 110°
2026-04-20 17:52 43.42707 -3.82633 19 ft 18 kts 110°
2026-04-20 17:52 43.42664 -3.82474 19 ft 18 kts 110°
2026-04-20 17:53 43.42633 -3.82356 19 ft 12 kts 109°
2026-04-20 17:53 43.42571 -3.82307 19 ft 11 kts 195°
2026-04-20 17:53 43.42525 -3.82328 21 ft 6 kts 199°
2026-04-20 17:53 43.42485 -3.82347 19 ft 4 kts 199°
2026-04-20 17:54 43.42462 -3.82370 19 ft 5 kts 234°
2026-04-20 17:54 43.42443 -3.82409 19 ft 4 kts 217°
2026-04-20 17:54 43.42428 -3.82420 19 ft 2 kts 204°
2026-04-20 17:54 43.42417 -3.82426 19 ft 2 kts 202°
2026-04-20 17:55 43.42415 -3.82427 19 ft 0 kts 202°